Regional Weather Roundup
Issued by NWS

Home | Current Version | Previous Version | Graphics & Text | Print | Product List | Glossary On
Versions: 1 2 3 4 5 6 7 8 9 10 11 12 13 14 15 16 17 18 19 20 21 22 23 24 25 26 27 28 29 30 31 32 33 34 35 36 37 38 39 40 41 42 43 44 45 46 47 48 49 50
184
ASUS43 KLMK 291710
RWRKY
KENTUCKY REGIONAL WEATHER ROUNDUP
NATIONAL WEATHER SERVICE LOUISVILLE KY
100 PM EDT THU SEP 29 2016

NOTE "FAIR" INDICATES FEW OR NO CLOUDS BELOW 12,000 FEET
WITH NO SIGNIFICANT WEATHER AND/OR OBSTRUCTIONS TO VISIBILITY.

KYZ001>023-026-027-061>063-070>075-291800-
WESTERN AND SOUTH CENTRAL KENTUCKY

CITY           SKY/WX    TMP DP  RH WIND       PRES   REMARKS
PADUCAH        LGT RAIN  59  55  87 NW6       30.13S FOG
HENDERSON      PTSUNNY   59  54  82 N5        30.09F
OWENSBORO      PTSUNNY  N/A N/A N/A VRB5      30.09S
HOPKINSVILLE   DRIZZLE   57  52  82 NW7       30.11S
BOWLING GREEN  CLOUDY    60  51  72 CALM      30.10S
GLASGOW        CLOUDY    59  50  70 W7        30.09S
$$

KYZ024-025-028>034-038-045-046-053-291800-
NORTH CENTRAL KENTUCKY

CITY           SKY/WX    TMP DP  RH WIND       PRES   REMARKS
LOUISVILLE/SDF PTSUNNY   61  53  75 W7        30.07F
LOUISVILLE/LOU CLOUDY    59  53  80 W8        30.08S
FORT KNOX      CLOUDY    59  52  77 CALM      30.06F
$$

KYZ035>037-039>044-047>052-055>060-089>105-291800-
NORTHEAST KENTUCKY

CITY           SKY/WX    TMP DP  RH WIND       PRES   REMARKS
LEXINGTON      PTSUNNY   62  50  64 CALM      30.06S
COVINGTON      CLOUDY    59  52  77 NE6       30.08R
FRANKFORT      CLOUDY    62  51  67 CALM      30.06S
$$

KYZ054-064>069-076>088-106>120-291800-
SOUTHEAST KENTUCKY

CITY           SKY/WX    TMP DP  RH WIND       PRES   REMARKS
JACKSON        CLOUDY    55  53  93 CALM      30.06S
LONDON         CLOUDY    61  49  64 VRB3      30.07S
SOMERSET       CLOUDY    59  46  63 N3        30.08S
MIDDLESBORO    CLOUDY    61  51  70 NE7       30.06F
MONTICELLO     CLOUDY    63  50  62 W13       30.09S
$$





USA.gov is the U.S. government's official web portal to all federal, state and local government web resources and services.